Location: *
(48.8489°N, 2.3218°E)
Time: 23:46:21
(UTC+00:00)

Cosmos 1610 Rocket - Pass Details

Date: 23 August 2019
Orbit: 952 x 1003 km, 82.9° (Epoch: 19 September)

Event Time Altitude Azimuth Distance (km) Brightness Sun altitude
Rises 22:08:04 0° 349° (N) 3,643 8.7 -25.5°
Reaches altitude 10° 22:10:34 10° 348° (NNW) 2,695 7.8 -25.7°
Maximum altitude 22:16:42 76° 264° (W) 992 4.5 -26.2°
Enters shadow 22:17:55 58° 199° (SSW) 1,109 4.5 -26.3°
